| time (UTC) | temp F | wind direction | speed knots | gust knots | rain 1hr in | rain 24hr in | rain mn in | humidity % | barometer mb |
| 20260502221422 | 56 | 304 | 1.7 | 4.3 | 0.00 | 0.00 | 0.11 | 86 | |
| 20260502220922 | 56 | 300 | 0.9 | 2.6 | 0.00 | 0.00 | 0.11 | 86 | |
| 20260502220421 | 56 | 305 | 0.9 | 3.5 | 0.00 | 0.00 | 0.11 | 86 | |
| 20260502215921 | 56 | 283 | 0.9 | 3.5 | 0.00 | 0.00 | 0.11 | 86 | |
| 20260502215421 | 56 | 291 | 0.0 | 2.6 | 0.00 | 0.00 | 0.11 | 86 | |
| 20260502214920 | 56 | 315 | 0.9 | 4.3 | 0.00 | 0.00 | 0.11 | 86 | |
| 20260502214419 | 56 | 293 | 0.0 | 0.9 | 0.00 | 0.00 | 0.11 | 86 | |
| 20260502213919 | 56 | 0 | 0.0 | 0.0 | 0.00 | 0.00 | 0.11 | 86 | |
| 20260502213419 | 56 | 0 | 0.0 | 0.0 | 0.00 | 0.00 | 0.11 | 86 | |
| 20260502212919 | 56 | 281 | 0.9 | 3.5 | 0.00 | 0.00 | 0.11 | 85 | |
| 20260502212418 | 56 | 290 | 0.0 | 2.6 | 0.00 | 0.00 | 0.11 | 85 | |
| 20260502211918 | 57 | 270 | 0.0 | 2.6 | 0.00 | 0.00 | 0.11 | 85 | |
| 20260502211418 | 56 | 276 | 0.0 | 2.6 | 0.00 | 0.00 | 0.11 | 85 | |
| 20260502210918 | 57 | 291 | 0.9 | 3.5 | 0.00 | 0.00 | 0.11 | 85 | |
| 20260502210417 | 56 | 283 | 0.9 | 2.6 | 0.00 | 0.00 | 0.11 | 85 | |
| 20260502205917 | 58 | 273 | 0.0 | 2.6 | 0.00 | 0.00 | 0.11 | 85 | |
| 20260502205417 | 57 | 319 | 0.0 | 0.9 | 0.00 | 0.00 | 0.11 | 85 | |
| 20260502204916 | 57 | 288 | 1.7 | 4.3 | 0.00 | 0.00 | 0.11 | 85 | |
| 20260502204416 | 57 | 269 | 1.7 | 5.2 | 0.00 | 0.00 | 0.11 | 85 | |
| 20260502203916 | 57 | 274 | 2.6 | 4.3 | 0.00 | 0.00 | 0.11 | 85 | |
| 20260502203416 | 58 | 284 | 0.9 | 3.5 | 0.00 | 0.00 | 0.11 | 85 | |
| 20260502202915 | 57 | 283 | 0.9 | 3.5 | 0.00 | 0.00 | 0.11 | 85 | |
| 20260502202415 | 58 | 274 | 1.7 | 6.1 | 0.00 | 0.00 | 0.11 | 85 | |
| 20260502201414 | 58 | 263 | 0.9 | 4.3 | 0.00 | 0.00 | 0.11 | 85 | |
| 20260502200914 | 58 | 288 | 0.9 | 3.5 | 0.00 | 0.00 | 0.11 | 85 | |
| 20260502200414 | 58 | 290 | 0.9 | 4.3 | 0.00 | 0.00 | 0.11 | 85 | |
| 20260502195913 | 58 | 298 | 1.7 | 4.3 | 0.00 | 0.00 | 0.11 | 85 | |
| 20260502194913 | 58 | 0 | 0.0 | 0.0 | 0.00 | 0.00 | 0.11 | 84 | |
| 20260502194413 | 58 | 0 | 0.0 | 0.0 | 0.00 | 0.00 | 0.11 | 84 | |
| 20260502193912 | 58 | 0 | 0.0 | 0.0 | 0.00 | 0.00 | 0.11 | 84 | |
| 20260502193412 | 58 | 0 | 0.0 | 0.0 | 0.00 | 0.00 | 0.11 | 84 | |
| 20260502192912 | 58 | 0 | 0.0 | 0.0 | 0.00 | 0.00 | 0.11 | 84 | |
| 20260502192412 | 58 | 0 | 0.0 | 0.0 | 0.00 | 0.00 | 0.11 | 84 | |
| 20260502191911 | 58 | 0 | 0.0 | 0.0 | 0.00 | 0.00 | 0.11 | 84 | |
| 20260502191411 | 58 | 0 | 0.0 | 0.0 | 0.00 | 0.00 | 0.11 | 84 | |
| 20260502190911 | 58 | 0 | 0.0 | 0.0 | 0.00 | 0.00 | 0.11 | 84 | |
| 20260502185910 | 58 | 0 | 0.0 | 0.0 | 0.00 | 0.00 | 0.11 | 84 | |
| 20260502185410 | 58 | 139 | 0.9 | 3.5 | 0.00 | 0.00 | 0.11 | 84 | |
| 20260502184910 | 58 | 105 | 0.0 | 0.9 | 0.00 | 0.00 | 0.11 | 84 | |
| 20260502184409 | 58 | 172 | 0.0 | 2.6 | 0.00 | 0.00 | 0.11 | 84 | |
| 20260502183908 | 58 | 0 | 0.0 | 0.0 | 0.00 | 0.00 | 0.11 | 84 | |
| 20260502183408 | 58 | 0 | 0.0 | 0.0 | 0.00 | 0.00 | 0.11 | 84 | |
| 20260502182908 | 58 | 0 | 0.0 | 0.0 | 0.00 | 0.00 | 0.11 | 84 | |
| 20260502182407 | 58 | 0 | 0.0 | 0.0 | 0.00 | 0.00 | 0.11 | 84 | |
| 20260502181907 | 58 | 0 | 0.0 | 0.0 | 0.00 | 0.00 | 0.11 | 84 | |
| 20260502181407 | 58 | 0 | 0.0 | 0.0 | 0.00 | 0.00 | 0.11 | 84 | |
| 20260502180907 | 58 | 0 | 0.0 | 0.0 | 0.00 | 0.00 | 0.11 | 84 | |
| 20260502180403 | 58 | 0 | 0.0 | 0.0 | 0.00 | 0.00 | 0.11 | 84 | |
| 20260502170355 | 58 | 0 | 0.0 | 0.0 | 0.00 | 0.00 | 0.10 | 81 | |
| 20260502163853 | 59 | 232 | 0.0 | 2.6 | 0.00 | 0.00 | 0.09 | 78 | |
| 20260502163353 | 59 | 248 | 1.7 | 5.2 | 0.00 | 0.00 | 0.08 | 78 | |
| 20260502162353 | 61 | 245 | 0.0 | 0.9 | 0.00 | 0.00 | 0.07 | 76 | |
| 20260502161852 | 61 | 0 | 0.0 | 0.0 | 0.00 | 0.00 | 0.07 | 76 | |
| 20260502161352 | 60 | 0 | 0.0 | 0.0 | 0.00 | 0.00 | 0.06 | 75 | |
| 20260502160852 | 61 | 0 | 0.0 | 0.0 | 0.00 | 0.00 | 0.05 | 73 | |
| 20260502160352 | 61 | 266 | 0.0 | 1.7 | 0.00 | 0.00 | 0.04 | 72 | |
| 20260502151848 | 66 | 240 | 1.7 | 3.5 | 0.00 | 0.00 | 0.00 | 53 | |
| 20260502151347 | 66 | 262 | 1.7 | 5.2 | 0.00 | 0.00 | 0.00 | 51 | |
| 20260502150847 | 66 | 190 | 3.5 | 6.1 | 0.00 | 0.00 | 0.00 | 48 | |
| 20260502130340 | 70 | 349 | 0.0 | 1.7 | 0.00 | 0.00 | 0.00 | 40 | |
| 20260502123338 | 69 | 198 | 0.9 | 2.6 | 0.00 | 0.00 | 0.00 | 40 | |
| 20260502122838 | 70 | 183 | 0.9 | 3.5 | 0.00 | 0.00 | 0.00 | 39 | |
| 20260502122336 | 71 | 309 | 0.9 | 3.5 | 0.00 | 0.00 | 0.00 | 38 | |
| 20260502121836 | 71 | 249 | 0.9 | 4.3 | 0.00 | 0.00 | 0.00 | 38 | |
| 20260502121336 | 71 | 191 | 2.6 | 6.1 | 0.00 | 0.00 | 0.00 | 38 | |
| 20260502120835 | 71 | 293 | 1.7 | 5.2 | 0.00 | 0.00 | 0.00 | 38 | |
| 20260502120335 | 70 | 359 | 0.9 | 3.5 | 0.00 | 0.00 | 0.00 | 39 | |
| 20260502115835 | 71 | 277 | 1.7 | 4.3 | 0.00 | 0.00 | 0.00 | 39 | |
| 20260502115335 | 70 | 287 | 0.9 | 4.3 | 0.00 | 0.00 | 0.00 | 39 | |
| 20260502114834 | 69 | 325 | 1.7 | 2.6 | 0.00 | 0.00 | 0.00 | 40 | |
| 20260502114334 | 68 | 307 | 0.9 | 3.5 | 0.00 | 0.00 | 0.00 | 42 | |
| 20260502113834 | 68 | 218 | 0.0 | 1.7 | 0.00 | 0.00 | 0.00 | 43 | |
| 20260502113334 | 68 | 217 | 1.7 | 4.3 | 0.00 | 0.00 | 0.00 | 42 | |
| 20260502112833 | 68 | 219 | 0.9 | 4.3 | 0.00 | 0.00 | 0.00 | 42 | |
| 20260502112333 | 69 | 319 | 0.0 | 0.9 | 0.00 | 0.00 | 0.00 | 41 | |
| 20260502111833 | 69 | 270 | 1.7 | 5.2 | 0.00 | 0.00 | 0.00 | 40 | |
| 20260502111332 | 69 | 309 | 0.9 | 4.3 | 0.00 | 0.00 | 0.00 | 41 | |
| 20260502110832 | 68 | 293 | 0.9 | 3.5 | 0.00 | 0.00 | 0.00 | 42 | |
| 20260502110332 | 67 | 242 | 1.7 | 5.2 | 0.00 | 0.00 | 0.00 | 43 | |
| 20260502105832 | 67 | 224 | 0.9 | 4.3 | 0.00 | 0.00 | 0.00 | 44 | |
| 20260502105331 | 66 | 113 | 0.9 | 1.7 | 0.00 | 0.00 | 0.00 | 45 | |
| 20260502104831 | 66 | 204 | 0.0 | 2.6 | 0.00 | 0.00 | 0.00 | 45 | |
| 20260502104331 | 67 | 239 | 0.9 | 4.3 | 0.00 | 0.00 | 0.00 | 45 | |
| 20260502103830 | 67 | 214 | 0.9 | 4.3 | 0.00 | 0.00 | 0.00 | 43 | |
| 20260502103330 | 67 | 262 | 0.9 | 2.6 | 0.00 | 0.00 | 0.00 | 42 | |
| 20260502102830 | 66 | 256 | 1.7 | 4.3 | 0.00 | 0.00 | 0.00 | 43 | |
| 20260502102330 | 67 | 245 | 0.9 | 3.5 | 0.00 | 0.00 | 0.00 | 44 | |
| 20260502101829 | 66 | 252 | 1.7 | 4.3 | 0.00 | 0.00 | 0.00 | 46 | |
| 20260502101329 | 66 | 280 | 0.9 | 4.3 | 0.00 | 0.00 | 0.00 | 46 | |
| 20260502100829 | 65 | 269 | 0.9 | 3.5 | 0.00 | 0.00 | 0.00 | 47 | |
| 20260502091326 | 62 | 245 | 0.9 | 4.3 | 0.00 | 0.00 | 0.00 | 53 | |
| 20260502090825 | 63 | 266 | 0.9 | 2.6 | 0.00 | 0.00 | 0.00 | 53 | |
| 20260502090325 | 63 | 0 | 0.0 | 0.0 | 0.00 | 0.00 | 0.00 | 53 | |
| 20260502071315 | 54 | 0 | 0.0 | 0.0 | 0.00 | 0.00 | 0.00 | 80 | |
| 20260502070814 | 52 | 0 | 0.0 | 0.0 | 0.00 | 0.00 | 0.00 | 81 | |
| 20260502070314 | 52 | 0 | 0.0 | 0.0 | 0.00 | 0.00 | 0.00 | 82 | |
| 20260502065814 | 52 | 0 | 0.0 | 0.0 | 0.00 | 0.00 | 0.00 | 83 | |
| 20260502065314 | 51 | 0 | 0.0 | 0.0 | 0.00 | 0.00 | 0.00 | 83 | |
| 20260502064813 | 51 | 0 | 0.0 | 0.0 | 0.00 | 0.00 | 0.00 | 84 | |
| 20260502064313 | 51 | 0 | 0.0 | 0.0 | 0.00 | 0.00 | 0.00 | 84 | |
| 20260502063812 | 51 | 0 | 0.0 | 0.0 | 0.00 | 0.00 | 0.00 | 84 | |
| 20260502061810 | 50 | 0 | 0.0 | 0.0 | 0.00 | 0.00 | 0.00 | 85 | |
| 20260502061309 | 50 | 0 | 0.0 | 0.0 | 0.00 | 0.00 | 0.00 | 85 | |
| 20260502060809 | 50 | 0 | 0.0 | 0.0 | 0.00 | 0.00 | 0.00 | 85 | |
| 20260502060309 | 49 | 0 | 0.0 | 0.0 | 0.00 | 0.00 | 0.00 | 85 | |
| 20260502055809 | 49 | 0 | 0.0 | 0.0 | 0.00 | 0.00 | 0.00 | 85 | |
| 20260502055308 | 50 | 0 | 0.0 | 0.0 | 0.00 | 0.00 | 0.00 | 84 | |
| 20260502054808 | 50 | 0 | 0.0 | 0.0 | 0.00 | 0.00 | 0.00 | 84 | |
| 20260502054308 | 50 | 0 | 0.0 | 0.0 | 0.00 | 0.00 | 0.00 | 84 | |
| 20260502053807 | 49 | 0 | 0.0 | 0.0 | 0.00 | 0.00 | 0.00 | 84 | |
| 20260502053307 | 50 | 0 | 0.0 | 0.0 | 0.00 | 0.00 | 0.00 | 84 | |
| 20260502052807 | 49 | 0 | 0.0 | 0.0 | 0.00 | 0.00 | 0.00 | 84 | |
| 20260502052307 | 49 | 0 | 0.0 | 0.0 | 0.00 | 0.00 | 0.00 | 84 | |
| 20260502051806 | 49 | 0 | 0.0 | 0.0 | 0.00 | 0.00 | 0.00 | 84 | |
| 20260502051306 | 49 | 0 | 0.0 | 0.0 | 0.00 | 0.00 | 0.00 | 84 | |
| 20260502050805 | 49 | 0 | 0.0 | 0.0 | 0.00 | 0.00 | 0.00 | 84 | |
| 20260502050304 | 50 | 0 | 0.0 | 0.0 | 0.00 | 0.00 | 0.00 | 83 | |
| 20260502045804 | 50 | 0 | 0.0 | 0.0 | 0.00 | 0.00 | 0.00 | 84 | |
| 20260502045306 | 50 | 0 | 0.0 | 0.0 | 0.00 | 0.00 | 0.00 | 83 | |
| 20260502044804 | 50 | 0 | 0.0 | 0.0 | 0.00 | 0.00 | 0.00 | 83 | |
| 20260502044302 | 49 | 0 | 0.0 | 0.0 | 0.00 | 0.00 | 0.00 | 83 | |
| 20260502043802 | 49 | 0 | 0.0 | 0.0 | 0.00 | 0.00 | 0.00 | 83 | |
| 20260502043301 | 50 | 0 | 0.0 | 0.0 | 0.00 | 0.00 | 0.00 | 83 | |
| 20260502042801 | 50 | 0 | 0.0 | 0.0 | 0.00 | 0.00 | 0.00 | 83 | |
| 20260502042301 | 50 | 0 | 0.0 | 0.0 | 0.00 | 0.00 | 0.00 | 83 | |
| 20260502041801 | 50 | 0 | 0.0 | 0.0 | 0.00 | 0.00 | 0.00 | 83 | |
| 20260502041300 | 49 | 0 | 0.0 | 0.0 | 0.00 | 0.00 | 0.00 | 83 | |
| 20260502040757 | 49 | 0 | 0.0 | 0.0 | 0.00 | 0.00 | 0.00 | 82 | |
| 20260502040256 | 50 | 0 | 0.0 | 0.0 | 0.00 | 0.00 | 0.00 | 82 | |
| 20260502035254 | 50 | 0 | 0.0 | 0.0 | 0.00 | 0.00 | 0.00 | 82 | |
| 20260502034254 | 50 | 0 | 0.0 | 0.0 | 0.00 | 0.00 | 0.00 | 82 | |
| 20260502033753 | 51 | 0 | 0.0 | 0.0 | 0.00 | 0.00 | 0.00 | 82 | |
| 20260502033253 | 51 | 0 | 0.0 | 0.0 | 0.00 | 0.00 | 0.00 | 82 | |
| 20260502032753 | 51 | 0 | 0.0 | 0.0 | 0.00 | 0.00 | 0.00 | 82 | |
| 20260502032253 | 51 | 0 | 0.0 | 0.0 | 0.00 | 0.00 | 0.00 | 82 | |
| 20260502032223 | 51 | 0 | 0.0 | 0.0 | 0.00 | 0.00 | 0.00 | 82 | |
| 20260502031752 | 51 | 0 | 0.0 | 0.0 | 0.00 | 0.00 | 0.00 | 82 | |
| 20260502031252 | 51 | 0 | 0.0 | 0.0 | 0.00 | 0.00 | 0.00 | 82 | |
| 20260502030751 | 51 | 0 | 0.0 | 0.0 | 0.00 | 0.00 | 0.00 | 82 | |
| 20260502030249 | 51 | 0 | 0.0 | 0.0 | 0.00 | 0.00 | 0.00 | 82 | |
| 20260502025749 | 51 | 0 | 0.0 | 0.0 | 0.00 | 0.00 | 0.00 | 82 | |
| 20260502025248 | 51 | 0 | 0.0 | 0.0 | 0.00 | 0.00 | 0.00 | 83 | |
| 20260502024747 | 51 | 0 | 0.0 | 0.0 | 0.00 | 0.00 | 0.00 | 83 | |
| 20260502023746 | 51 | 0 | 0.0 | 0.0 | 0.00 | 0.00 | 0.00 | 82 | |
| 20260502023246 | 51 | 0 | 0.0 | 0.0 | 0.00 | 0.00 | 0.00 | 83 | |
| 20260502022746 | 51 | 0 | 0.0 | 0.0 | 0.00 | 0.00 | 0.00 | 83 | |
| 20260502022245 | 51 | 0 | 0.0 | 0.0 | 0.00 | 0.00 | 0.00 | 83 | |
| 20260502021244 | 50 | 0 | 0.0 | 0.0 | 0.00 | 0.00 | 0.00 | 82 | |
| 20260502020742 | 51 | 270 | 0.0 | 1.7 | 0.00 | 0.00 | 0.00 | 82 | |
| 20260502020234 | 51 | 0 | 0.0 | 0.0 | 0.00 | 0.00 | 0.00 | 81 | |
| 20260502015741 | 51 | 0 | 0.0 | 0.0 | 0.00 | 0.00 | 0.00 | 81 | |
| 20260502014741 | 50 | 0 | 0.0 | 0.0 | 0.00 | 0.00 | 0.00 | 81 | |
| 20260502014240 | 51 | 0 | 0.0 | 0.0 | 0.00 | 0.00 | 0.00 | 81 | |
| 20260502013240 | 51 | 0 | 0.0 | 0.0 | 0.00 | 0.00 | 0.00 | 81 | |
| 20260502012740 | 51 | 0 | 0.0 | 0.0 | 0.00 | 0.00 | 0.00 | 81 | |
| 20260502012239 | 51 | 0 | 0.0 | 0.0 | 0.00 | 0.00 | 0.00 | 80 | |
| 20260502011739 | 51 | 0 | 0.0 | 0.0 | 0.00 | 0.00 | 0.00 | 80 | |
| 20260502011239 | 52 | 0 | 0.0 | 0.0 | 0.00 | 0.00 | 0.00 | 80 | |
| 20260502010737 | 52 | 0 | 0.0 | 0.0 | 0.00 | 0.00 | 0.00 | 80 | |
| 20260502010237 | 52 | 0 | 0.0 | 0.0 | 0.00 | 0.00 | 0.00 | 80 | |
| 20260502005737 | 52 | 0 | 0.0 | 0.0 | 0.00 | 0.00 | 0.00 | 80 | |
| 20260502005237 | 52 | 0 | 0.0 | 0.0 | 0.00 | 0.00 | 0.00 | 79 | |
| 20260502004735 | 52 | 339 | 0.0 | 0.9 | 0.00 | 0.00 | 0.00 | 79 | |
| 20260502004234 | 52 | 343 | 0.0 | 2.6 | 0.00 | 0.00 | 0.00 | 78 | |
| 20260502003734 | 53 | 0 | 0.0 | 0.0 | 0.00 | 0.00 | 0.00 | 78 | |
| 20260502003234 | 53 | 305 | 0.0 | 2.6 | 0.00 | 0.00 | 0.00 | 78 | |
| 20260502002734 | 53 | 307 | 0.0 | 2.6 | 0.00 | 0.00 | 0.00 | 78 | |
| 20260502002233 | 53 | 301 | 0.0 | 1.7 | 0.00 | 0.00 | 0.00 | 78 | |
| 20260502001733 | 53 | 288 | 0.0 | 1.7 | 0.00 | 0.00 | 0.00 | 78 | |
| 20260502001233 | 54 | 323 | 0.0 | 1.7 | 0.00 | 0.00 | 0.00 | 78 | |
| 20260502001056 | 54 | 285 | 0.0 | 1.7 | 0.00 | 0.00 | 0.00 | 78 | |
| 20260502000732 | 54 | 285 | 0.0 | 1.7 | 0.00 | 0.00 | 0.00 | 78 | |
| 20260502000233 | 54 | 0 | 0.0 | 0.0 | 0.00 | 0.00 | 0.00 | 78 | |
| 20260501235906 | 54 | 0 | 0.0 | 0.0 | 0.00 | 0.00 | 0.00 | 78 | |
| 20260501235732 | 54 | 0 | 0.0 | 0.0 | 0.00 | 0.00 | 0.00 | 78 | |
| 20260501235308 | 54 | 0 | 0.0 | 0.0 | 0.00 | 0.00 | 0.00 | 78 | |
| 20260501235232 | 54 | 0 | 0.0 | 0.0 | 0.00 | 0.00 | 0.00 | 78 | |
| 20260501234731 | 54 | 304 | 0.0 | 2.6 | 0.00 | 0.00 | 0.00 | 78 | |
| 20260501234231 | 54 | 302 | 0.9 | 3.5 | 0.00 | 0.00 | 0.00 | 79 | |
| 20260501233731 | 54 | 321 | 0.9 | 2.6 | 0.00 | 0.00 | 0.00 | 80 | |
| 20260501233230 | 54 | 0 | 0.0 | 0.0 | 0.00 | 0.00 | 0.00 | 81 | |
| 20260501232958 | 54 | 0 | 0.0 | 0.0 | 0.00 | 0.00 | 0.00 | 81 | |
| 20260501232730 | 54 | 0 | 0.0 | 0.0 | 0.00 | 0.00 | 0.00 | 81 | |
| 20260501232446 | 54 | 0 | 0.0 | 0.0 | 0.00 | 0.00 | 0.00 | 82 | |
| 20260501232230 | 54 | 0 | 0.0 | 0.0 | 0.00 | 0.00 | 0.00 | 82 | |
| 20260501231729 | 54 | 0 | 0.0 | 0.0 | 0.00 | 0.00 | 0.00 | 82 | |
| 20260501231229 | 54 | 0 | 0.0 | 0.0 | 0.00 | 0.00 | 0.00 | 82 | |
| 20260501230729 | 54 | 271 | 0.0 | 0.9 | 0.00 | 0.00 | 0.00 | 82 | |
| 20260501230228 | 54 | 0 | 0.0 | 0.0 | 0.00 | 0.00 | 0.00 | 82 | |
| 20260501225728 | 54 | 311 | 1.7 | 3.5 | 0.00 | 0.00 | 0.00 | 82 | |
| 20260501224728 | 55 | 0 | 0.0 | 0.0 | 0.00 | 0.00 | 0.00 | 82 | |
| 20260501224227 | 55 | 0 | 0.0 | 0.0 | 0.00 | 0.00 | 0.00 | 81 | |
| 20260501224127 | 55 | 0 | 0.0 | 0.0 | 0.00 | 0.00 | 0.00 | 81 | |
| 20260501223726 | 55 | 0 | 0.0 | 0.0 | 0.00 | 0.00 | 0.00 | 81 | |
| 20260501223226 | 55 | 0 | 0.0 | 0.0 | 0.00 | 0.00 | 0.00 | 80 | |
| 20260501222832 | 54 | 0 | 0.0 | 0.0 | 0.00 | 0.00 | 0.00 | 80 | |
| 20260501222726 | 55 | 0 | 0.0 | 0.0 | 0.00 | 0.00 | 0.00 | 80 | |
| 20260501222225 | 54 | 0 | 0.0 | 0.0 | 0.00 | 0.00 | 0.00 | 80 | |
| 20260501221725 | 56 | 0 | 0.0 | 0.0 | 0.00 | 0.00 | 0.00 | 80 |